Current Version              Previous Version:    01  02  03  04  05  06  07  08  09  10  11  12  13  14  15  16  17  18  19  20  21  22  23  24  25  26  27  28  29  30  
   31  32  33  34  35  36  37  38  39  40  41  42  43  44  45  46  47  48  49  50  51  52  53  54  55  56  57  58  59  60  

[Printable]
043
ASUS44 KLUB 231001
RWRTX
WEST TEXAS WEATHER ROUNDUP
NATIONAL WEATHER SERVICE LUBBOCK TX
400 AM CST SUN NOV 23 2014

NOTE: "FAIR" INDICATES FEW OR NO CLOUDS BELOW 12,000 FEET WITH NO
SIGNIFICANT WEATHER AND/OR OBSTRUCTIONS TO VISIBILITY.

TXZ004-006>008-010-012-014-016-OKZ002-231100-
TEXAS PANHANDLE/OKLAHOMA PANHANDLE

CITY           SKY/WX    TMP DP  RH WIND       PRES   REMARKS
AMARILLO       PTCLDY    52  20  28 W16G25    29.48R
BORGER         MOCLDY    43  23  45 W10       29.45F
CANADIAN       CLEAR     45  44  96 SW5       29.43F
DALHART        CLOUDY    46  23  40 W12       29.50F
GUYMON         MOCLDY    45  28  51 W10       29.41F
$$

TXZ026-029-035-045-048-231100-
SOUTHERN PANHANDLE/SOUTH PLAINS/ROLLING PLAINS

CITY           SKY/WX    TMP DP  RH WIND       PRES   REMARKS
CHILDRESS      CLEAR     47  45  93 SW13      29.48F
LUBBOCK        MOCLDY    52  26  36 W20       29.57S
$$

TXZ052-054-060>062-072-078-127-140-154-169-231100-
PERMIAN BASIN/CONCHO VALLEY/BIG COUNTRY/EDWARDS PLATEAU

CITY           SKY/WX    TMP DP  RH WIND       PRES   REMARKS
ABILENE        CLEAR     52  51  97 SW9       29.61F
JUNCTION       CLEAR     47  47 100 CALM      29.70F
MIDLAND        CLEAR     53  33  46 SW17      29.65F
ODESSA         CLEAR     50  32  50 W12       29.66F
SAN ANGELO     CLEAR     49  43  80 SW7       29.65F
WINK           MOCLDY    55  25  31 W17G23    29.67F
$$

TXZ055-058-074-075-080-082-231100-
FAR WEST/SOUTHWEST MOUNTAINS/TRANS PECOS

CITY           SKY/WX    TMP DP  RH WIND       PRES   REMARKS
DRYDEN           N/A     54  39  57 W7        29.74S
EL PASO        PTCLDY    53  20  27 SE16      29.86F
FORT STOCKTON  CLEAR     54  31  41 SW18      29.71F
MARFA          PTCLDY    43  30  61 W9        29.89S
$$

TXZ014-016-019-021>030-083-231100
TEXAS TECH WEST TEXAS MESONET/TEXAS PANHANDLE/NORTHERN SOUTH PLAINS

CITY           SKY/WX    TMP DP  RH WIND       PRES   REMARKS
AMARILLO 9NNE    N/A     50  21  31 W8        29.48R
AMARILLO 7SSE    N/A     46  23  40 W16       29.49F
AMHERST 1NE      N/A     53  22  30 W18       29.57F
BOOTLEG 11WNW    N/A     50  19  28 W18       29.61R
CANADIAN 6E      N/A     44  44  98 S7        29.42F
CAPROCK CYN SP   N/A     57  23  26 W24       29.47R
CHILDRESS 2NNE   N/A     47  47  98 S15       29.47F
CLARENDON 2WSW   N/A     41  33  75 SW12      29.46F
CLAUDE 12SW      N/A     54  22  28 SW20      29.47F
DIMMITT 2NE      N/A     50  20  30 W14       29.55F
FLOYDADA 2NNE    N/A     47  29  49 SW17      29.52F
FRIONA 2NE       N/A     54  17  24 W21G35    29.57F
GOODLETT 3W      N/A     47  45  93 S12       29.49S
HART 3N          N/A     47  23  38 SW15      29.55F
HEREFORD 2NW     N/A     50  20  30 W17       29.54F
MCLEAN 1E        N/A     38  37  99 SW5       29.44F WCI  34
MEMPHIS 1NE      N/A     37  37  99 NW3       29.47F
MULESHOE 2SSW    N/A     55  18  22 W25       29.57F
OLTON 6S         N/A     51  23  32 W17       29.57S
PALO DURO SP     N/A     52  22  30 W20G30    29.49S
PAMPA 2E         N/A     45  29  54 W7        29.44S
PLAINVIEW 1S     N/A     50  26  38 W14       29.53F
SILVERTON 7ESE   N/A     52  26  36 W24       29.48S
TULIA 2ENE       N/A     50  23  34 W20       29.52R
TURKEY 2WSW      N/A     52  31  43 SW9       29.47F
UMBARGER 3NNE    N/A     47  23  37 W17       29.52S
$$

TXZ033>036-039>041-045>048-231100
TEXAS TECH WEST TEXAS MESONET/SOUTH PLAINS

CITY           SKY/WX    TMP DP  RH WIND       PRES   REMARKS
AIKEN 3WSW       N/A     49  28  43 W18       29.54F
ANDREWS 2NE      N/A     50  30  46 SW13      29.65F
ANTON 6SSW       N/A     52  26  36 SW12      29.59S
BROWNFIELD 2S    N/A     51  22  32 W15       29.61F
DENVR CTY 7WNW   N/A     49  20  32 W16       29.64F
GAIL 2ESE        N/A     43  38  80 SW9       29.59S
LAMESA 2SE       N/A     44  36  73 W12       29.62F
LEVELLAND 4S     N/A     50  22  33 SW10      29.60F
LUBBOCK 3WNW     N/A     53  25  34 W16       29.58S
MORTON 1ENE      N/A     52  22  31 W17       29.61S
ODONNELL 1N      N/A     43  33  70 W9        29.61F
PLAINS 3N        N/A     49  23  35 W14       29.64R
RALLS 1SE        N/A     45  33  63 SW12      29.56F
REESE CENTER     N/A     51  24  34 W18       29.58F
SEAGRAVES 1SW    N/A     51  23  32 W16       29.63S
SEMINOLE 2NNE    N/A     53  22  29 W15       29.64S
SLATON 2NE       N/A     44  33  65 SW14      29.57F
SNYDER 3E        N/A     46  45  99 S8        29.60F
SUNDOWN 8SW      N/A     51  22  32 SW15      29.61F
TAHOKA 3NNE      N/A     43  32  65 SW8       29.59F
WOLFFORTH 6SSW   N/A     50  25  37 W15       29.60S
$$

TXZ031-032-036>038-042>044-231100-
TEXAS TECH WEST TEXAS MESONET/ROLLING PLAINS

CITY           SKY/WX    TMP DP  RH WIND       PRES   REMARKS
ASPERMONT 3NE    N/A     51  49  96 S8        29.56F
FLUVANNA 3WNW    N/A     45  40  83 S7        29.58F
GRAHAM 5SSW      N/A     46  33  62 W15       29.57F
GUTHRIE 10WSW    N/A     49  48  97 S10       29.53F
HASKELL 1NW      N/A     49  48  97 S10       29.56F
JAYTON 1SSE      N/A     48  47  95 SW8       29.56F
KNOX CITY 3NW    N/A     50  47  90 S13       29.56F
LK A HENRY 1NW   N/A     49  40  71 SW10      29.56F
NORTHFIELD 1S    N/A     49  43  79 S6        29.48F
ODELL 4ENE       N/A     51  51 100 S15       29.50F
PADUCAH 10SW     N/A     48  47  97 SW10      29.51F
POST 1NE         N/A     48  34  58 W16G25    29.56F
RRING SPRGS 3N   N/A     46  37  70 SW8       29.51F
SEYMOUR 3NW      N/A     51  49  92 S13       29.54F
SPUR 1W          N/A     44  43  96 SE5       29.54F
WEINERT 2NNE     N/A     49  48  96 S8        29.56F
WHITE RVR 6NE    N/A     55  31  41 W18       29.53F
$$

TXZ052-054-060>062-072-078-127-140-154-169-231100-
TEXAS TECH WEST TEXAS MESONET/PERMIAN BASIN/
CONCHO VALLEY/BIG COUNTRY/EDWARDS PLATEAU

CITY           SKY/WX    TMP DP  RH WIND       PRES   REMARKS
COYANOSA 2N      N/A     53  30  41 SW9       29.69F
JUNCTION 1SSW    N/A     48  47  97 SE2       29.71S
MERTZON 3NNE     N/A     54  40  58 SW7       29.68F
SAN ANGELO 7NW   N/A     46  45  95 S1        29.66F
STRLNG CT 4WSW   N/A     53  39  60 SW10      29.66F
ST LAWRNCE 5SW   N/A     48  37  65 SW13      29.67F
SWEETWATR 11SW   N/A     47  43  84 S3        29.63F
WALL 1E          N/A     51  44  75 S10       29.66F
$$

TXZ055-058-074-075-080-082-231100-
TEXAS TECH WEST TEXAS MESONET/FAR WEST/SOUTHWEST MOUNTAINS/TRANS PECOS

CITY           SKY/WX    TMP DP  RH WIND       PRES   REMARKS
PRSMN GAP BBNP   N/A     55  37  51 S7        29.83R
GUADLPE MTN NP   N/A     50  15  24 W40       29.78R
$$